Regional Weather Roundup
Issued by NWS Cleveland, OH

Home | Current Version | Previous Version | Graphics & Text | Print | Product List | Glossary On
Versions: 1 2 3 4 5 6 7 8 9 10 11 12 13 14 15 16 17 18 19 20 21 22 23 24 25 26 27 28 29 30 31 32 33 34 35 36 37 38 39 40 41 42 43 44 45 46 47 48 49 50
000
ASUS41 KCLE 100610
RWRCLE
OHIO REGIONAL WEATHER ROUNDUP
NATIONAL WEATHER SERVICE WILMINGTON, OH
100 AM EST SAT DEC 10 2016

NOTE: "FAIR" INDICATES FEW OR NO CLOUDS BELOW 12,000 FEET WITH NO
SIGNIFICANT WEATHER AND/OR OBSTRUCTIONS TO VISIBILITY.

OHZ001>008-015>018-024>027-034-035-043-044-100700-
   NORTHWEST OHIO

CITY           SKY/WX    TMP DP  RH WIND       PRES   REMARKS
DEFIANCE       CLOUDY    25  14  63 W6        30.47S WCI  18
FINDLAY        CLOUDY    24  14  65 MISG      30.45S
TOLEDO EXPRESS CLOUDY    24  17  74 W14       30.44F WCI  12
TOLEDO EXEC    CLOUDY    26  18  71 W10       30.45S WCI  16
LIMA           FAIR      22  17  81 W10       30.45F WCI  11
$$

OHZ009>014-019>023-028>033-038-089-100700-
   NORTHEAST OHIO

CITY           SKY/WX    TMP DP  RH WIND       PRES   REMARKS
CLE-HOPKINS    CLOUDY    27  19  72 SW15      30.43F WCI  15
CLE-LAKEFRONT  FLURRIES  27  20  75 SW18      30.41R WCI  14
CUY CO. ARPT   NOT AVBL
LORAIN-ELYRIA  CLOUDY    25  17  72 W16       30.43S WCI  12
ASHTABULA      LGT SNOW  25  23  92 SW9       30.36S FOG     WCI  15
AKRON-CANTON   CLOUDY    25  17  72 W13       30.40F WCI  14
WOOSTER        CLOUDY    23  18  81 W10       30.42F WCI  12
MANSFIELD      CLOUDY    22  19  89 W10       30.41F WCI  11
YOUNGSTOWN     FLURRIES  25  18  74 W10       30.37R WCI  15
$$

OHZ042-051>053-060>062-070>072-077>081-100700-
  SOUTHWEST OHIO

CITY           SKY/WX    TMP DP  RH WIND       PRES   REMARKS
CINC-COVINGTON FAIR      20  14  77 SW6       30.53R WCI  12
CINC-LUNKEN    FAIR      18  14  84 S7        30.57R WCI   9
HAMILTON       MOCLDY    16  13  88 W3        30.55S
DAYTON         CLOUDY    22  19  89 W6        30.49S WCI  14
WRIGHT-PAT AFB CLOUDY    23  20  88 SW5       30.49S WCI  17
DAYTON GENERAL MOCLDY    22  16  78 W6        30.49S WCI  14
WILMINGTON     CLOUDY    18  15  88 SW7       30.49S WCI   9
$$

OHZ036-037-039>041-045>050-054>059-063>069-073>076-082>088-100700-
  CENTRAL AND SOUTHEAST OHIO

CITY           SKY/WX    TMP DP  RH WIND       PRES   REMARKS
COLUMBUS       CLOUDY    24  18  77 W10       30.47F WCI  14
OSU AIRPORT    CLOUDY    24  18  77 W7        30.47F WCI  16
BOLTON FIELD   FLURRIES  24  20  87 W5        30.49S WCI  18
RICKENBACK AFB   N/A     21  20  93 SW6       30.49S WCI  14
NEWARK         CLOUDY    23  19  85 S6        30.46F WCI  16
MARION         CLOUDY    23  16  74 W9        30.45F WCI  13
LANCASTER      MOCLDY    20  17  88 SW3       30.49S
ZANESVILLE     CLOUDY    24  18  77 SW6       30.47F WCI  17
NEW PHILLY     CLOUDY    25  19  78 W7        30.45F WCI  17
$$




USA.gov is the U.S. government's official web portal to all federal, state and local government web resources and services.